Vorticity
6 13 5 4 6 2 3 5 7 7 9 11 12 15 14 10 10 11 12 11 13 12 12 11 11 12 16 13 4 3 8 17 9 19 20 8 55 32 14 59 41 39 -1
8 2 2 3 4 6 8 7 10 12 11 13 12 9 9 10 10 10 12 12 14 10 10 10 14 13 10 11 7 5 11 6 -1 15 38 7 -4 50 -7 39 47 57 41
4 4 3 8 10 9 9 13 10 10 8 5 7 8 9 10 11 11 11 12 12 11 12 11 11 7 2 -2 10 -1 6 -0 9 -11 32 1 32 34 21 37 19 70 62
12 11 10 8 10 11 9 9 7 7 8 8 8 9 9 10 11 11 10 11 12 9 11 12 11 7 8 10 10 5 7 3 11 17 -2 24 45 29 28 4 -31 57 60
9 10 10 9 8 6 6 6 6 7 9 12 15 14 13 12 10 9 11 10 11 10 11 14 14 15 22 11 6 8 4 3 2 7 13 20 24 22 23 21 4 65 31
11 7 5 6 7 6 6 7 8 9 9 10 10 11 13 12 13 13 13 13 12 10 11 16 15 14 14 5 5 8 4 3 3 -4 8 4 47 14 22 16 6 51 22
7 8 8 8 9 9 12 12 12 12 13 14 14 14 13 14 16 18 17 15 13 11 11 17 14 11 8 8 7 8 7 5 5 -1 3 15 27 16 15 4 7 16 -1
8 8 10 10 9 10 12 13 14 13 12 12 13 17 17 19 16 16 17 15 14 12 12 15 5 11 9 7 8 11 11 6 5 6 -2 28 24 17 12 8 5 34 6
9 10 11 12 14 14 13 11 11 11 11 12 15 21 19 22 22 24 18 16 14 16 13 16 9 -4 5 5 8 8 8 7 3 6 4 15 11 56 24 4 9 30 4
14 15 15 15 13 12 12 12 12 13 15 22 18 15 7 10 21 23 16 21 15 19 15 16 19 17 10 10 8 6 9 7 4 4 4 3 2 16 38 17 22 22 16
13 12 12 12 12 12 12 13 14 16 18 23 29 9 14 11 21 17 29 20 23 23 15 15 16 16 13 13 7 10 7 9 6 1 1 2 -3 10 31 30 10 -9 21
13 13 15 13 13 14 14 16 23 29 28 25 21 21 28 35 21 19 -8 16 5 19 13 14 16 12 10 10 16 9 4 8 8 4 2 1 4 2 17 54 23 20 8
15 15 12 13 12 17 31 35 33 27 23 20 19 22 53 10 3 12 6 9 12 11 17 13 16 13 8 10 10 14 14 7 7 7 2 4 -2 -3 6 8 20 25 20
14 13 13 12 23 28 18 13 13 14 17 24 29 50 42 -5 14 18 12 10 4 27 21 22 15 12 12 8 14 10 12 12 10 7 7 4 3 4 3 5 29 17 14
16 13 13 26 24 23 25 27 28 31 32 32 35 50 -10 26 7 13 21 11 7 28 15 1 -1 21 10 10 8 14 15 6 7 10 8 9 2 2 1 7 13 59 17
14 13 25 23 18 16 18 26 26 24 25 35 20 5 12 13 13 4 16 21 14 3 -10 1 19 3 24 9 10 9 7 14 12 7 8 12 7 4 2 7 0 15 -6
13 21 24 15 11 13 9 24 32 33 21 30 15 10 23 13 1 5 7 20 12 11 12 12 20 25 10 21 11 7 16 7 6 13 13 9 16 9 2 -3 16 12 37
19 25 20 11 13 15 9 23 31 31 33 23 32 1 10 13 19 8 8 9 14 14 1 8 -13 23 8 16 16 14 9 11 12 7 7 15 15 16 13 4 20 7 25
24 25 14 10 14 15 11 26 32 30 28 31 31 20 -4 5 11 17 12 16 8 5 12 6 8 12 13 15 12 13 11 10 10 10 13 10 9 11 11 11 18 5 35
26 20 9 14 15 10 18 30 30 31 30 23 27 31 18 -4 2 11 14 11 10 1 6 15 6 3 4 10 24 14 15 11 10 12 11 9 7 9 9 10 3 10 30
27 14 9 15 17 8 26 27 26 28 32 30 21 26 21 22 5 5 2 9 7 19 20 4 5 15 5 16 12 15 18 14 10 11 9 11 8 7 5 9 6 17 28
24 9 12 14 16 14 27 25 25 28 30 31 28 22 21 15 22 18 14 -10 6 7 5 10 17 14 14 7 12 14 11 18 14 10 10 9 7 10 8 4 8 15 30
21 8 15 13 11 22 27 25 27 28 30 29 30 28 24 15 19 12 25 19 37 -3 6 3 -0 10 9 8 0 -8 17 8 14 14 9 9 4 5 9 8 6 25 24
18 10 15 13 10 27 25 25 28 31 31 30 29 29 30 27 14 16 14 7 26 34 14 1 7 0 4 9 3 11 7 13 8 12 13 13 6 4 6 12 9 29 18
14 13 14 12 12 28 24 24 29 32 29 28 28 28 27 28 26 20 12 15 18 20 13 46 -1 5 3 5 7 -0 6 14 15 12 8 11 8 4 4 9 13 22 16
13 13 14 12 15 25 24 24 24 29 30 28 28 27 25 25 26 27 27 25 21 19 17 12 53 12 -2 1 1 6 -4 10 11 16 11 10 9 3 4 4 17 21 18
Height
5667 5664 5662 5658 5654 5651 5646 5642 5637 5632 5627 5622 5619 5614 5609 5606 5602 5598 5595 5591 5587 5583 5578 5575 5571 5569 5566 5562 5559 5555 5549 5540 5533 5538 5524 5516 5505 5496 5497 5502 5511 5528 5549
5657 5653 5649 5644 5640 5636 5631 5625 5621 5616 5611 5607 5602 5597 5592 5588 5584 5581 5577 5573 5570 5566 5561 5558 5557 5554 5551 5549 5546 5543 5535 5528 5522 5518 5510 5501 5490 5483 5484 5485 5493 5504 5520
5644 5639 5635 5630 5624 5620 5614 5608 5601 5596 5591 5587 5582 5578 5574 5570 5565 5561 5558 5555 5552 5548 5544 5542 5540 5538 5537 5536 5534 5528 5522 5519 5513 5506 5498 5488 5476 5469 5472 5475 5480 5485 5498
5629 5624 5618 5612 5606 5600 5594 5588 5583 5577 5571 5565 5560 5556 5552 5548 5544 5541 5538 5536 5532 5528 5526 5524 5523 5523 5524 5523 5520 5515 5511 5509 5503 5495 5486 5477 5468 5462 5464 5464 5466 5471 5480
5613 5606 5600 5593 5587 5581 5575 5568 5562 5556 5549 5543 5538 5534 5530 5527 5524 5521 5518 5515 5512 5510 5507 5506 5507 5508 5509 5509 5506 5503 5501 5499 5493 5486 5478 5471 5463 5459 5457 5459 5463 5465 5472
5595 5588 5581 5574 5567 5560 5552 5544 5537 5532 5525 5521 5515 5512 5509 5506 5502 5498 5496 5494 5492 5491 5490 5490 5491 5493 5494 5494 5493 5492 5491 5489 5485 5479 5471 5465 5457 5453 5451 5453 5455 5457 5465
5578 5569 5561 5552 5544 5536 5528 5521 5514 5507 5500 5495 5491 5487 5485 5482 5478 5475 5474 5473 5473 5473 5473 5473 5475 5477 5479 5479 5478 5479 5479 5478 5477 5472 5467 5458 5450 5446 5445 5446 5447 5451 5457
5558 5549 5540 5531 5522 5514 5506 5498 5490 5482 5477 5470 5465 5461 5460 5458 5454 5452 5451 5451 5453 5454 5454 5457 5459 5461 5464 5466 5466 5466 5467 5467 5466 5464 5459 5454 5445 5441 5440 5440 5442 5446 5452
5539 5528 5518 5508 5499 5490 5482 5473 5466 5456 5451 5445 5438 5436 5434 5433 5431 5429 5429 5429 5432 5434 5436 5439 5442 5445 5448 5451 5454 5454 5454 5456 5456 5455 5452 5448 5441 5436 5436 5437 5438 5442 5449
5519 5508 5496 5485 5474 5466 5456 5447 5439 5429 5422 5416 5413 5410 5409 5410 5409 5408 5408 5409 5413 5416 5419 5422 5425 5428 5432 5436 5440 5442 5444 5445 5445 5445 5444 5442 5439 5433 5430 5429 5432 5435 5440
5496 5485 5473 5461 5450 5439 5431 5421 5412 5404 5396 5391 5389 5389 5389 5389 5390 5390 5391 5393 5396 5400 5403 5407 5410 5413 5416 5420 5425 5429 5432 5434 5436 5437 5436 5435 5433 5429 5425 5424 5425 5431 5435
5474 5463 5452 5440 5429 5418 5406 5396 5385 5375 5368 5365 5363 5363 5366 5367 5370 5373 5376 5379 5382 5385 5388 5392 5396 5399 5402 5406 5410 5415 5420 5423 5425 5427 5428 5428 5427 5425 5421 5420 5422 5426 5430
5455 5443 5432 5420 5407 5392 5378 5367 5358 5351 5345 5342 5338 5339 5342 5348 5352 5356 5361 5364 5367 5371 5373 5377 5381 5385 5389 5393 5397 5401 5406 5410 5413 5416 5419 5420 5420 5420 5420 5418 5417 5418 5423
5436 5423 5410 5397 5384 5369 5357 5345 5337 5330 5325 5321 5317 5317 5323 5329 5334 5338 5344 5349 5352 5356 5359 5363 5367 5371 5376 5380 5384 5388 5393 5397 5401 5403 5407 5409 5410 5412 5414 5414 5412 5414 5418
5416 5402 5388 5374 5361 5351 5340 5326 5318 5311 5304 5301 5301 5303 5310 5314 5319 5322 5327 5332 5337 5342 5346 5350 5354 5358 5362 5367 5372 5376 5380 5385 5389 5392 5395 5399 5402 5403 5405 5407 5409 5408 5413
5398 5383 5367 5354 5342 5331 5321 5316 5303 5293 5291 5289 5290 5292 5293 5296 5301 5306 5311 5316 5322 5328 5332 5338 5341 5345 5349 5354 5359 5364 5368 5373 5377 5381 5385 5389 5394 5397 5398 5400 5403 5406 5407
5379 5364 5350 5337 5325 5314 5304 5293 5287 5284 5275 5276 5277 5279 5280 5284 5288 5293 5296 5301 5308 5314 5318 5323 5328 5332 5336 5341 5347 5352 5357 5362 5366 5370 5374 5378 5383 5388 5391 5393 5396 5398 5399
5363 5348 5335 5323 5311 5299 5287 5276 5266 5262 5263 5261 5260 5264 5266 5269 5273 5277 5283 5289 5294 5299 5304 5309 5314 5318 5323 5328 5333 5339 5345 5350 5355 5359 5363 5367 5372 5376 5381 5384 5387 5392 5395
5350 5335 5322 5310 5297 5284 5272 5259 5249 5244 5242 5244 5244 5246 5251 5254 5256 5261 5269 5274 5279 5284 5289 5294 5301 5305 5310 5315 5320 5326 5332 5338 5344 5349 5353 5356 5361 5365 5370 5375 5377 5382 5386
5337 5322 5310 5297 5284 5271 5256 5243 5233 5227 5224 5224 5226 5228 5232 5237 5240 5245 5251 5257 5263 5268 5274 5280 5286 5292 5297 5302 5307 5313 5319 5325 5331 5337 5343 5347 5350 5354 5359 5363 5367 5371 5374
5327 5314 5300 5286 5271 5257 5241 5228 5218 5212 5208 5206 5208 5210 5213 5218 5223 5227 5234 5241 5247 5252 5259 5265 5272 5278 5283 5291 5296 5300 5306 5312 5319 5325 5331 5337 5342 5345 5348 5353 5357 5359 5363
5317 5304 5290 5275 5260 5245 5228 5215 5205 5197 5192 5190 5190 5192 5195 5200 5204 5209 5214 5222 5231 5237 5242 5249 5257 5263 5270 5277 5283 5289 5294 5300 5306 5313 5319 5324 5330 5335 5339 5342 5345 5349 5352
5309 5296 5281 5266 5250 5234 5218 5204 5192 5184 5178 5175 5174 5176 5178 5182 5187 5192 5197 5202 5210 5220 5226 5234 5241 5248 5255 5263 5270 5278 5283 5289 5295 5301 5308 5314 5319 5324 5329 5333 5336 5337 5341
5302 5288 5273 5258 5242 5226 5209 5195 5183 5173 5166 5163 5161 5161 5163 5167 5171 5176 5180 5184 5190 5198 5207 5215 5224 5232 5239 5248 5257 5264 5272 5278 5284 5291 5298 5305 5311 5316 5320 5323 5326 5330 5333
5297 5283 5268 5252 5237 5220 5204 5190 5177 5166 5159 5154 5151 5150 5151 5153 5156 5160 5164 5168 5174 5180 5187 5195 5204 5214 5224 5233 5242 5251 5260 5267 5274 5280 5288 5295 5302 5307 5312 5315 5317 5320 5324
5292 5279 5264 5250 5234 5218 5202 5188 5175 5164 5155 5149 5145 5143 5142 5142 5143 5145 5148 5151 5156 5162 5169 5177 5184 5195 5206 5216 5227 5236 5246 5255 5263 5270 5278 5286 5292 5299 5304 5307 5309 5312 5315